sat.trackr.live / text

‹ back to catalog

STARLINK-32412

NORAD 61680 · 2024-193V

PAYLOAD ACTIVE UNKNOWN

§ Identity

Operator
Country
US
Launch date
2024-10-26
Launch site
AFETR
Launch vehicle
Mass (kg)
RCS (m²)

Purposes: comms

External: N2YO · Heavens-Above · Gunter

§ Orbital elements

Epoch: 2026-09-21T16:42:08.867808Z

Period
94.01 min
Inclination
53.1605°
Eccentricity
0.0001386
Mean motion
15.31702401 rev/d
Perigee alt
469.8 km
Apogee alt
471.7 km
Semi-major
6,848.9 km
B*
2.9004e-5
RAAN
259.3276°
Arg perigee
96.0867°
Mean anomaly
264.0293°
Rev number
10,655

§ Raw data

STARLINK-324121 61680U 24193V   26264.69593597  .00000535  00000+0  29004-4 0  99942 61680  53.1605 259.3276 0001386  96.0867 264.0293 15.31702401106558

JSON: /api/v1/satellites/61680 · /tle

For live sub-satellite position, see the globe view (requires WebGL).

§ Visibility from observer

Set your observer location to see the next 7 days of passes ≥ 10°. The values pass through the URL so the page stays shareable.

No JS? Fill the form by hand. The geolocation button needs JavaScript.